Date String (YYYY-MM-DD hh:mm:ss) UTC,Instrument flags,absolute air pressure of the measurement (hPa),sample flow rate (lpm),inlet stack bypass flow (lpm),air temperature of the measurement (°C),ambient temperature measured by the external sensor (°C),aerosol sample conditioner tube jacket temperature (°C),OPC LED temperature (°C),internal box temperature (°C),relative humidity of the measurement (%),span deviation,mass concentration of particles derived from Lorenz-Mie calculation of OPC scattering (μg/m³),mass concentration of particles derived from Lorenz-Mie calculation of OPC scattering (μg/m³),mass concentration of particles derived from Lorenz-Mie calculation of OPC scattering (μg/m³)
DateTimeUTC,F1_M11,P_M11,Q1_M11,Q2_M11,T1_M11,T2_M11,T3_M11,T4_M11,T5_M11,U1_M11,ZSPAN_M11,X0_M11,X2_M11,X1_M11
2023-06-04 03:00:00,SystemResetWarning,0833.2,4.98,000.00,030.2,028.8,000.0,038.5,031.9,27.9,0000.0,0005.30,0002.80,0002.41
2023-06-04 03:01:00,SystemResetWarning,0833.3,5.02,000.00,030.2,028.8,000.0,038.5,031.9,27.5,0000.0,0005.33,0002.80,0002.41
2023-06-04 03:02:00,SystemResetWarning,0833.2,4.99,000.00,030.2,028.4,000.0,038.5,031.8,27.3,0000.0,0005.42,0002.82,0002.40
2023-06-04 03:03:00,SystemResetWarning,0833.3,5.02,000.00,030.2,026.6,000.0,038.4,031.5,27.5,0000.0,0005.45,0002.78,0002.39
2023-06-04 03:04:00,SystemResetWarning,0833.3,5.00,000.00,030.1,025.6,000.0,038.3,031.3,28.1,0000.0,0005.16,0002.75,0002.36
2023-06-04 03:05:00,SystemResetWarning,0833.3,4.99,000.00,030.0,025.6,000.0,038.3,031.2,28.3,0000.0,0004.58,0002.74,0002.36
2023-06-04 03:06:00,SystemResetWarning,0833.3,5.00,000.00,029.9,025.9,000.0,038.3,031.2,28.1,0000.0,0004.42,0002.72,0002.38
2023-06-04 03:07:00,SystemResetWarning,0833.3,5.00,000.00,029.8,026.2,000.0,038.3,031.2,28.1,0000.0,0004.43,0002.74,0002.39
2023-06-04 03:08:00,SystemResetWarning,0833.3,5.01,000.00,029.8,026.6,000.0,038.3,031.2,28.3,0000.0,0004.23,0002.76,0002.40
2023-06-04 03:09:00,SystemResetWarning,0833.3,5.00,000.00,029.8,026.9,000.0,038.2,031.2,28.4,0000.0,0003.96,0002.79,0002.42
2023-06-04 03:10:00,SystemResetWarning,0833.3,4.99,000.00,029.7,027.1,000.0,038.2,031.2,28.7,0000.0,0003.88,0002.81,0002.45
2023-06-04 03:11:00,SystemResetWarning,0833.4,5.00,000.00,029.7,027.4,000.0,038.2,031.3,28.8,0000.0,0003.81,0002.81,0002.47
2023-06-04 03:12:00,SystemResetWarning,0833.4,5.00,000.00,029.7,027.6,000.0,038.2,031.3,28.7,0000.0,0004.52,0002.81,0002.47
2023-06-04 03:13:00,SystemResetWarning,0833.4,5.00,000.00,029.7,027.7,000.0,038.2,031.3,28.8,0000.0,0004.65,0002.84,0002.47
2023-06-04 03:14:00,SystemResetWarning,0833.4,5.00,000.00,029.7,027.8,000.0,038.2,031.3,28.7,0000.0,0004.63,0002.85,0002.46
2023-06-04 03:15:00,SystemResetWarning,0833.4,4.99,000.00,029.8,027.9,000.0,038.2,031.3,28.7,0000.0,0004.57,0002.85,0002.49
2023-06-04 03:16:00,SystemResetWarning,0833.4,5.00,000.00,029.8,028.0,000.0,038.2,031.4,28.9,0000.0,0004.68,0002.85,0002.50
2023-06-04 03:17:00,SystemResetWarning,0833.4,4.99,000.00,029.8,028.1,000.0,038.2,031.4,28.9,0000.0,0004.92,0002.87,0002.51
2023-06-04 03:18:00,SystemResetWarning,0833.4,5.00,000.00,029.8,028.2,000.0,038.2,031.4,28.7,0000.0,0005.27,0002.91,0002.51
2023-06-04 03:19:00,SystemResetWarning,0833.4,5.00,000.00,029.8,028.2,000.0,038.2,031.4,28.7,0000.0,0005.33,0002.94,0002.52
2023-06-04 03:20:00,SystemResetWarning,0833.4,5.01,000.00,029.8,028.2,000.0,038.2,031.4,28.7,0000.0,0005.39,0002.98,0002.53
2023-06-04 03:21:00,SystemResetWarning,0833.4,5.01,000.00,029.8,028.3,000.0,038.2,031.4,28.2,0000.0,0005.45,0003.01,0002.53
2023-06-04 03:22:00,SystemResetWarning,0833.4,5.00,000.00,029.8,028.3,000.0,038.2,031.5,27.8,0000.0,0005.51,0003.04,0002.56
2023-06-04 03:23:00,SystemResetWarning,0833.4,5.00,000.00,029.8,028.3,000.0,038.2,031.5,27.6,0000.0,0004.79,0003.04,0002.58
2023-06-04 03:24:00,SystemResetWarning,0833.4,5.00,000.00,029.9,028.3,000.0,038.2,031.5,27.3,0000.0,0004.62,0003.04,0002.62
2023-06-04 03:25:00,SystemResetWarning,0833.4,5.00,000.00,029.9,028.4,000.0,038.2,031.5,27.2,0000.0,0004.68,0003.08,0002.64
2023-06-04 03:26:00,SystemResetWarning,0833.4,4.99,000.00,029.9,028.4,000.0,038.2,031.5,27.2,0000.0,0004.72,0003.09,0002.63
2023-06-04 03:27:00,SystemResetWarning,0833.4,5.00,000.00,029.9,028.4,000.0,038.2,031.5,27.0,0000.0,0004.56,0003.06,0002.61
2023-06-04 03:28:00,SystemResetWarning,0833.4,5.01,000.00,029.9,028.4,000.0,038.2,031.6,26.9,0000.0,0004.32,0003.06,0002.58
2023-06-04 03:29:00,SystemResetWarning,0833.4,5.01,000.00,029.9,028.4,000.0,038.2,031.6,26.9,0000.0,0003.98,0003.02,0002.56
2023-06-04 03:30:00,SystemResetWarning,0833.4,5.00,000.00,029.9,028.5,000.0,038.3,031.6,26.9,0000.0,0004.65,0002.97,0002.53
2023-06-04 03:31:00,SystemResetWarning,0833.4,5.00,000.00,030.0,028.5,000.0,038.3,031.6,26.8,0000.0,0005.22,0002.95,0002.51
2023-06-04 03:32:00,SystemResetWarning,0833.4,4.99,000.00,030.0,028.5,000.0,038.3,031.6,26.8,0000.0,0005.21,0002.92,0002.49
2023-06-04 03:33:00,SystemResetWarning,0833.4,5.00,000.00,030.0,028.5,000.0,038.3,031.6,26.8,0000.0,0005.22,0002.86,0002.44
2023-06-04 03:34:00,SystemResetWarning,0833.4,5.00,000.00,030.0,028.5,000.0,038.3,031.6,26.9,0000.0,0005.34,0002.87,0002.41
2023-06-04 03:35:00,SystemResetWarning,0833.4,5.00,000.00,030.0,028.5,000.0,038.3,031.6,26.9,0000.0,0005.40,0002.88,0002.38
2023-06-04 03:36:00,SystemResetWarning,0833.5,5.00,000.00,030.0,028.5,000.0,038.3,031.7,27.0,0000.0,0005.30,0002.83,0002.36
2023-06-04 03:37:00,SystemResetWarning,0833.4,5.00,000.00,030.0,028.5,000.0,038.3,031.7,27.4,0000.0,0005.24,0002.80,0002.35
2023-06-04 03:38:00,SystemResetWarning,0833.5,5.00,000.00,030.0,028.5,000.0,038.3,031.7,27.4,0000.0,0005.27,0002.83,0002.36
2023-06-04 03:39:00,SystemResetWarning,0833.5,5.00,000.00,030.0,028.6,000.0,038.4,031.7,27.5,0000.0,0005.27,0002.82,0002.36
2023-06-04 03:40:00,SystemResetWarning,0833.6,5.01,000.00,030.0,028.6,000.0,038.4,031.7,27.7,0000.0,0005.32,0002.80,0002.35
2023-06-04 03:41:00,SystemResetWarning,0833.6,5.00,000.00,030.0,028.6,000.0,038.4,031.7,27.8,0000.0,0004.90,0002.82,0002.35
2023-06-04 03:42:00,SystemResetWarning,0833.6,5.00,000.00,030.1,028.6,000.0,038.4,031.7,27.6,0000.0,0004.26,0002.79,0002.35
2023-06-04 03:43:00,SystemResetWarning,0833.6,4.99,000.00,030.1,028.6,000.0,038.4,031.7,27.4,0000.0,0004.22,0002.76,0002.34
2023-06-04 03:44:00,SystemResetWarning,0833.7,4.99,000.00,030.1,028.6,000.0,038.4,031.7,27.5,0000.0,0004.28,0002.76,0002.32
2023-06-04 03:45:00,SystemResetWarning,0833.7,4.99,000.00,030.1,028.6,000.0,038.4,031.7,27.4,0000.0,0004.35,0002.70,0002.28
2023-06-04 03:46:00,SystemResetWarning,0833.7,5.00,000.00,030.1,028.6,000.0,038.4,031.7,27.2,0000.0,0004.30,0002.66,0002.26
2023-06-04 03:47:00,SystemResetWarning,0833.7,5.00,000.00,030.1,028.6,000.0,038.4,031.7,27.1,0000.0,0004.25,0002.61,0002.21
2023-06-04 03:48:00,SystemResetWarning,0833.7,5.00,000.00,030.1,028.6,000.0,038.4,031.7,27.1,0000.0,0004.25,0002.60,0002.20
2023-06-04 03:49:00,SystemResetWarning,0833.7,5.00,000.00,030.1,028.6,000.0,038.5,031.8,27.1,0000.0,0004.21,0002.57,0002.17
2023-06-04 03:50:00,SystemResetWarning,0833.6,5.00,000.00,030.1,028.6,000.0,038.5,031.8,27.0,0000.0,0004.24,0002.57,0002.17
2023-06-04 03:51:00,SystemResetWarning,0833.7,5.00,000.00,030.1,028.6,000.0,038.5,031.8,26.9,0000.0,0004.28,0002.59,0002.17
2023-06-04 03:52:00,SystemResetWarning,0833.7,5.00,000.00,030.1,028.6,000.0,038.5,031.8,27.0,0000.0,0003.91,0002.59,0002.16
2023-06-04 03:53:00,SystemResetWarning,0833.7,5.00,000.00,030.1,028.6,000.0,038.5,031.8,27.0,0000.0,0003.89,0002.58,0002.15
2023-06-04 03:54:00,SystemResetWarning,0833.7,5.01,000.00,030.2,028.7,000.0,038.5,031.8,26.4,0000.0,0003.92,0002.59,0002.14
2023-06-04 03:55:00,SystemResetWarning,0833.7,5.01,000.00,030.2,028.7,000.0,038.5,031.8,26.0,0000.0,0003.79,0002.57,0002.14
2023-06-04 03:56:00,SystemResetWarning,0833.6,5.00,000.00,030.2,028.7,000.0,038.5,031.8,25.9,0000.0,0003.52,0002.57,0002.15
2023-06-04 03:57:00,SystemResetWarning,0833.7,5.00,000.00,030.2,028.7,000.0,038.5,031.8,25.9,0000.0,0003.38,0002.54,0002.16
2023-06-04 03:58:00,SystemResetWarning,0833.7,5.00,000.00,030.2,028.7,000.0,038.5,031.8,25.8,0000.0,0003.40,0002.55,0002.18
2023-06-04 03:59:00,SystemResetWarning,0833.7,4.99,000.00,030.2,028.7,000.0,038.5,031.8,25.8,0000.0,0003.51,0002.55,0002.18
